Preview of NWS' New Version of Forecast
This preview is not operational and should not be used for support decisions.
Latest weather observations around

Seattle, Seattle Boeing Field (KBFI)

Using English Units (Switch to International System of Units)
Date/ Time (PST) Wind (mph) Vis. (mi) Weather Sky Cond. Temp (°F) Rel. Humidity Wind Chill (°F) Heat Index (°F) Pressure Precip. (in)
Air Dwpt 6 hour Altimeter (inHg) Sea level (inHg) 1 hr 3 hr 6 hr
Max Min
Feb 19 06:53 SE 6 10 Cloudy BKN015 OVC023 38 35     89% 33   30.23 30.23      
Feb 19 05:53 SSE 7 10 Cloudy BKN015 OVC021 38 35     89% 33   30.25 30.24      
Feb 19 04:53 S 3 10 Cloudy SCT014 BKN020 OVC041 39 35     86% 37   30.27 30.26      
Feb 19 04:49 SSE 5 10 Cloudy BKN018 BKN025 OVC039 39 36     87% 36   30.27        
Feb 19 04:29 7 10 Clear   39 35     86% 34   30.27        
Feb 19 03:53 3 10 Clear   39 35     86% 37   30.28 30.27      
Feb 19 03:22 SE 5 10 Cloudy SCT012 BKN021 OVC026 39 35     86% 36   30.29        
Feb 19 03:05 SE 3 10 Cloudy BKN012 BKN017 OVC022 39 36     89% 37   30.29        
Feb 19 02:53 SE 6 10 Cloudy BKN016 OVC021 39 35     86% 35   30.29 30.28      
Feb 19 01:53 SSE 5 10 Cloudy OVC016 39 35     86% 36   30.31 30.3      
Feb 19 01:19 SE 5 10 Cloudy BKN016 BKN021 OVC055 39 35     86% 36   30.3        
Feb 19 00:53 SE 5 10 Cloudy OVC014 39 35     86% 36   30.31 30.3      
Feb 19 00:00 SSE 6 10 Cloudy OVC013 39 35     86% 35   30.31        
Feb 18 23:53 SSE 6 10 Cloudy OVC015 39 36     89% 35   30.31 30.31      
Feb 18 22:53 SE 5 10 Cloudy OVC021 39 35     86% 36   30.33 30.32      
Feb 18 21:53 SE 5 10 Cloudy BKN023 BKN037 OVC047 40 35     83% 37   30.35 30.34 0   0
Feb 18 21:28 ESE 5 10 Light Rain BKN024 BKN029 OVC036 40 36     86% 37   30.34   0    
Feb 18 21:19 SE 5 10 Light Rain FEW024 BKN031 OVC036 40 36     86% 37   30.34   0    
Feb 18 21:08 ESE 3 10 Light Rain BKN026 OVC036 40 37     89% 38   30.34   0    
Feb 18 20:53 SSE 3 10 Light Rain BKN030 OVC035 39 36     89% 37   30.34 30.34 0    
Feb 18 19:53 Calm 10 Mostly Cloudy SCT033 BKN070 41 35     79%     30.35 30.35      
Feb 18 18:53 Calm 10 Mostly Cloudy BKN065 41 36     82%     30.36 30.35      
Feb 18 17:53 Calm 10 Mostly Cloudy FEW030 SCT065 BKN200 42 36     79%     30.35 30.35      
Feb 18 16:53 ENE 3 10 Cloudy FEW010 SCT026 OVC065 43 35     73% 41   30.36 30.35      
Feb 18 15:53 E 5 10 Cloudy FEW010 SCT026 OVC065 43 36     76% 40   30.36 30.36     0
Feb 18 14:53 E 3 10 Cloudy FEW010 SCT026 OVC065 44 36     73% 43   30.36 30.36      
Feb 18 13:53 SE 5 10 Cloudy FEW008 SCT018 OVC026 42 37     82% 39   30.38 30.37      
Feb 18 12:53 ESE 6 10 Cloudy FEW008 SCT018 OVC026 41 36     82% 37   30.4 30.4   0  
Feb 18 12:30 E 7 10 Cloudy SCT008 OVC014 40 35     83% 35   30.41        
Feb 18 12:00 ENE 3 9 Cloudy BKN008 OVC014 39 35     86% 37   30.42        
Feb 18 11:53 E 5 9 Cloudy BKN008 OVC014 39 35     86% 36   30.42 30.42 0    
Feb 18 11:04 SE 5 9 Cloudy BKN008 BKN023 OVC060 39 35     86% 36   30.42        
Feb 18 10:53 ESE 6 8 Cloudy BKN008 BKN023 OVC060 39 36     89% 35   30.42 30.42      
Feb 18 10:23 SSE 7 9 Cloudy BKN008 OVC015 39 35     86% 34   30.42        
Feb 18 09:53 SSE 8 8 Cloudy SCT008 OVC010 38 34     85% 32   30.42 30.41     0
Feb 18 09:20 SE 6 8 Cloudy SCT008 OVC019 37 34     89% 32   30.41        
Feb 18 08:53 SE 6 7 Cloudy SCT019 OVC025 37 34     89% 32   30.41 30.4      
Feb 18 07:53 SSE 7 3 Fog/Mist OVC020 36 33     89% 30   30.4 30.4 0    
Feb 18 07:02 SE 7 3 Light Rain and Fog/Mist FEW008 FEW015 OVC025 35 32     88% 29   30.4   0    
Feb 18 06:53 SSE 7 3 Light Rain and Fog/Mist SCT008 BKN018 OVC028 35 32     88% 29   30.4 30.39 0 0  
Feb 18 05:53 SSE 7 10 Cloudy SCT007 OVC033 35 32     88% 29   30.39 30.39      
Feb 18 04:53 SE 7 10 Cloudy BKN010 OVC037 35 32     88% 29   30.38 30.37      
Feb 18 03:53 SSE 6 8 Cloudy SCT009 OVC033 36 33     89% 31   30.37 30.37      
Feb 18 03:12 S 3 8 Cloudy SCT009 OVC035 35 33     92% 32   30.37        
Feb 18 02:53 SE 7 7 Cloudy BKN033 OVC039 35 33     92% 29   30.37 30.37      
Feb 18 01:53 SSE 3 8 Cloudy OVC035 35 33     92% 32   30.37 30.37      
Feb 18 00:53 SSE 7 7 Clear   35 32     88% 29   30.36 30.35      
Feb 17 23:53 SSE 5 7 Cloudy SCT020 OVC030 34 32     92% 30   30.35 30.34      
Feb 17 22:53 S 3 9 Mostly Cloudy SCT040 BKN070 33 31     92% 30   30.34 30.33      
Feb 17 21:53 Calm 10 Partly Cloudy SCT110 33 31     92%     30.32 30.32      
Feb 17 20:53 SSE 3 10 Partly Cloudy SCT110 34 31     88% 31   30.31 30.3      
Feb 17 19:53 Calm 10 Mostly Cloudy BKN035 37 32     82%     30.29 30.29      
Feb 17 18:53 Calm 10 Mostly Cloudy BKN035 39 32     76%     30.28 30.28      
Feb 17 17:53 Calm 10 Mostly Cloudy FEW030 BKN036 BKN110 42 32     67%     30.26 30.26      
Feb 17 16:53 3 10 Mostly Cloudy FEW030 BKN039 44 32     62% 43   30.24 30.24      
Feb 17 15:53 Calm 10 Mostly Cloudy BKN030 BKN037 43 32     65%     30.23 30.23     0
Feb 17 14:53 N 3 10 Cloudy SCT015 BKN020 OVC030 42 33     70% 40   30.22 30.22      
Feb 17 13:53 Calm 10 Cloudy SCT015 BKN020 OVC030 42 35     76%     30.21 30.21 0    
Feb 17 12:53 WSW 5 9 Light Rain SCT015 BKN020 OVC030 41 35     79% 38   30.2 30.2 0 0  
Feb 17 11:53 Calm 7 Light Rain SCT015 BKN022 OVC050 40 35     83%     30.21 30.2 0    
Feb 17 11:00 Calm 10 Cloudy FEW012 BKN022 OVC050 39 35     86%     30.19        
Feb 17 10:53 SSW 3 10 Mostly Cloudy FEW012 SCT022 BKN033 39 35     86% 37   30.19 30.19      
Feb 17 09:53 SE 3 10 Mostly Cloudy FEW012 SCT022 BKN033 37 33     85% 35   30.17 30.16      
Feb 17 09:45 Calm 10 Mostly Cloudy SCT012 BKN022 BKN035 37 33     85%     30.16        
Feb 17 09:00 SE 3 10 Cloudy BKN013 OVC025 35 32     88% 32   30.15        
Feb 17 08:53 SSE 3 9 Mostly Cloudy SCT016 BKN065 35 32     88% 32   30.15 30.14      
Feb 17 07:53 SSE 3 7 Mostly Cloudy SCT016 BKN065 33 31     92% 30   30.12 30.11      
Feb 17 06:53 SSE 5 8 Cloudy BKN020 OVC030 33 31     92% 29   30.09 30.09      
Feb 17 05:53 Calm 10 Cloudy BKN016 OVC020 34 32     92%     30.08 30.07      
Feb 17 04:53 SE 6 10 Mostly Cloudy BKN016 35 32     88% 30   30.05 30.04      
Feb 17 03:53 ESE 5 10 Cloudy OVC016 36 33     89% 32   30.03 30.03      
Feb 17 02:53 ESE 6 10 Cloudy OVC017 35 32     88% 30   30.02 30.01      
Feb 17 02:14 SSE 5 10 Mostly Cloudy BKN018 33 30     88% 29   30        
Feb 17 01:53 Calm 10 Partly Cloudy SCT009 33 31     92%     29.99 29.99      
Feb 17 01:00 ESE 3 10 Partly Cloudy SCT009 36 33     89% 33   29.98        
Feb 17 00:53 E 3 10 Cloudy FEW009 BKN013 OVC030 36 34     92% 33   29.98 29.98      
Feb 16 23:53 SE 8 10 Cloudy FEW009 BKN013 OVC030 37 34     89% 31   29.96 29.96      
Feb 16 22:53 Calm 10 Cloudy FEW009 BKN013 OVC030 38 36     92%     29.95 29.94      
Feb 16 21:53 Calm 10 Clear   39 35     86%     29.93 29.93 0    
Feb 16 20:53 Calm 8 Light Rain BKN016 OVC026 38 35     89%     29.92 29.91 0    
Feb 16 19:53 NE 3 6 Light Rain and Fog/Mist SCT006 OVC014 39 36     89% 37   29.9 29.9 0    
Feb 16 18:53 Calm 9 Light Rain BKN006 OVC014 40 38     93%     29.89 29.88 0 0  
Feb 16 18:31 WNW 5 4 Rain and Fog/Mist BKN006 OVC014 40 38     93% 37   29.88   0    
Feb 16 17:53 SSE 6 9 Light Rain BKN014 OVC031 40 37     89% 36   29.87 29.86 0    
Feb 16 17:31 Calm 6 Light Rain BKN014 OVC031 42 36     79%     29.86   0    
Feb 16 16:53 SSE 3 10 Cloudy SCT012 BKN020 OVC031 42 37     82% 40   29.86 29.85 0    
Feb 16 15:53 Calm 7 Light Rain FEW008 BKN020 OVC035 43 37     79%     29.85 29.85 0   0
Feb 16 14:53 SE 6 7 Cloudy FEW008 SCT020 OVC034 44 39     82% 41   29.85 29.85      
Feb 16 13:53 E 8 6 Haze SCT008 BKN020 OVC027 43 38     82% 38   29.85 29.85 0    
Feb 16 12:53 SE 7 5 Light Rain and Fog/Mist OVC008 41 39     93% 36   29.85 29.85 0 0  
Feb 16 11:53 SSE 7 5 Fog/Mist OVC008 41 38     89% 36   29.86 29.86 0    
Feb 16 10:53 SE 8 4 Light Rain and Fog/Mist OVC007 39 37     93% 33   29.85 29.85 0    
Feb 16 09:53 SSE 9 10 Cloudy OVC008 39 36     89% 33   29.84 29.84 0   0
Feb 16 09:00 SSE 6 7 Light Rain BKN009 BKN018 OVC023 38 36     92% 33   29.84   0    
Feb 16 08:53 SE 6 5 Light Rain and Fog/Mist BKN011 OVC020 38 35     89% 33   29.83 29.83 0    
Feb 16 07:53 SSE 5 9 Light Rain BKN011 OVC020 36 34     92% 32   29.82 29.82 0    
May 15 05:53 SSW 6 10 Cloudy OVC008 55 51     86%     29.92 29.92      
May 14 14:53 NNW 8 10 Clear CLR 83 51     33%   81 29.88 29.88      
May 13 17:53 NW 7 10 Clear CLR 81 47     30%   80 29.87 29.87      
May 13 11:53 Calm 10 Clear CLR 71 54     55%   70 29.95 29.94      
May 13 10:53 6 10 Clear CLR 69 53     57%     29.95 29.95      
May 13 08:53 ENE 3 10 Clear CLR 64 51     63%     29.98 29.97      
May 12 01:53 SE 6 10 Clear CLR 53 47     80%     30.19 30.19      
May 12 00:53 Calm 10 Clear CLR 57 46     67%     30.19 30.19      
May 11 17:53 3 10 Partly Cloudy SCT046 67 46     47%     30.2 30.2      
Jun 12 03:53 SSE 8 10 Mostly Cloudy BKN060 53 51     93%     30 30      
Jun 12 02:53 SSE 7 10 Mostly Cloudy BKN055 54 51     90%     30 29.99      
Jun 11 22:53 Calm 10 Clear CLR 61 49     64%     29.99 29.99      
Jun 11 14:53 NW 8 10 Clear   69 48     47%     30 29.99      
Jun 11 01:53 Calm 10 Mostly Cloudy BKN085 57 47     69%     29.97 29.97      
Jun 10 23:53 Calm 10 Cloudy OVC075 59 47     64%     29.95 29.95      
Jun 10 15:53 NNW 7 10 Clear   65 44     47%     29.85 29.85      
Jun 08 08:44 SSE 8 10 Light Rain SCT007 BKN038 OVC095 57 57     100%     29.66   0    
Jun 07 14:53 6 10 Cloudy SCT140 OVC250 79 54     42%   79 29.69 29.69      
Jun 06 00:53 3 10 Clear CLR 60 46     60%     30.04 30.04      
Jun 05 20:53 NW 6 10 Clear CLR 65 46     50%     30.05 30.05      
Jun 05 19:53 NW 6 10 Mostly Cloudy BKN200 67 47     49%     30.05 30.05      
Jun 05 15:53 WNW 9 10 Mostly Cloudy BKN250 71 45     39%   70 30.08 30.07